Location: Bukit Kuda
(3.0500°N, 101.4667°E)
Time: 03:20:36
(UTC+00:00)

Daily predictions for brighter satellites

Satellite Brightness Start Highest point End
(mag) Time Altitude Azimuth Time Altitude Azimuth Time Altitude Azimuth
USA 281 3.5 11:04:38 10° NNE 11:11:11 77° WNW 11:17:45 10° SSW
Okean 2 Rocket 3.7 11:10:59 10° SSW 11:15:22 63° W 11:19:47 10° N
Cosmos 44 Rocket 4.3 11:10:51 10° SW 11:15:46 51° WNW 11:20:35 10° N
Cosmos 2219 Rocket 4.4 11:11:05 10° NW 11:15:57 31° WSW 11:20:51 10° SSW
Spelda 30 4.5 10:54:53 10° W 11:16:08 89° S 11:20:05 10° E
PSLV R/B 3.6 11:12:45 10° S 11:16:56 83° W 11:21:07 10° NNW
Cosmos 371 Rocket 3.4 11:13:37 10° SSW 11:18:23 83° WNW 11:23:08 10° N
ARIANE 5 R/B 3.1 11:13:57 10° WSW 11:18:34 58° S 11:22:39 10° E
ISS -3.2 11:16:45 10° SW 11:20:05 60° NW 11:23:23 10° NNE
Cosmos 2322 4.3 11:18:29 10° NNW 11:24:07 64° WSW 11:29:45 10° S
Stardust Del rocket 3.6 11:18:46 10° WSW 11:25:07 85° SSE 11:28:25 11° ENE
Cosmos 1238 4.4 11:21:48 10° S 11:25:10 77° W 11:28:09 10° N
ARIANE 5 R/B 3.4 11:24:00 10° W 11:28:06 62° N 11:32:25 11° E
IGS 5A 3.4 11:24:18 10° SSE 11:28:16 58° ENE 11:32:12 10° N
Cosmos 2098 Rocket 4.3 11:22:59 10° S 11:29:17 77° W 11:35:34 10° N
Cosmos 1486 Rocket 4.4 11:25:01 10° S 11:29:57 42° ESE 11:34:51 10° NNE
Cosmos 1869 3.7 11:33:27 10° SSE 11:36:45 33° E 11:40:03 10° NNE
Cosmos 1980 4.0 11:31:52 10° N 11:37:08 42° ENE 11:42:26 10° SE
Cosmos 1455 Rocket 3.3 11:33:03 10° SSE 11:37:19 49° E 11:41:35 10° NNE
DMSP B5D1-3 4.5 11:33:18 10° NNE 11:38:22 66° ESE 11:43:26 10° S
IUS-13 SRM-1 4.5 11:15:55 10° SW 11:38:49 53° SSE 11:42:44 14° E
Cosmos 1606 2.3 11:39:30 10° S 11:42:55 82° E 11:46:20 10° N
ARIANE 42L R/B 3.2 11:34:50 10° W 11:43:32 64° S 11:46:01 16° E
CZ-4 R/B 4.3 11:41:19 10° SSE 11:45:18 62° ENE 11:49:14 10° N
Cosmos 2227 4.2 11:40:46 10° S 11:46:19 63° ESE 11:51:51 10° NNE
ARIANE 5 DEB (SYLDA) 4.0 11:44:08 10° WSW 11:47:32 51° S 11:55:38 11° ESE
IRIDIUM 103 4.5 11:44:51 10° SSE 11:49:54 51° E 11:54:55 10° NNE
ATLAS 3B R/B 3.0 11:43:44 10° SSW 11:50:13 69° WNW 11:57:14 10° NNE
Cosmos 2154 Rocket 4.3 11:46:14 10° NNE 11:52:09 44° E 11:58:03 10° SSE
ARIANE 5 R/B 1.8 11:47:02 10° W 11:53:10 62° S 11:54:25 25° ESE
Delta 142 3.7 11:49:16 10° NW 11:54:19 58° NNE 11:57:01 22° ESE
ARIANE 5 R/B 3.2 11:56:52 10° SSW 11:58:06 14° SSE 11:58:54 12° SE
